Flag for Austria Weather past 2 weeks in Melk, Lower Austria, Austria

Now
44 °F

Quite cool.


Feels Like: 44 °F
Forecast: 29 / 54 °F
Wind: 2 mph from West

Location: Amstetten

Current Time: Apr 18, 2015 at 9:57:44 AM

Latest Report: Apr 18, 2015 at 9:00 AM


Visibility: N/A

Pressure: 30.15 "Hg

Humidity: 76%

Dew point: 36 °F

Location of MelkLocation

Historic Weather in Melk — Graph

°F

Melk temperature yesterday

Maximum temperature yesterday: 62 °F (at 11:00 AM)
Minimum temperature yesterday: 48 °F (at 11:00 PM)
Average temperature yesterday: 54 °F

Past Weeks' High & Low Weather Summary

 TemperatureHumidityPressure
High75 °F (Apr 16, 3:00 PM)96% (Apr 17, 8:00 PM)30.62 "Hg (Apr 17, 8:00 PM)
Low28 °F (Apr 4, 5:00 AM)26% (Apr 15, 4:00 PM)29.83 "Hg (Apr 17, 6:00 PM)
Average49 °F65%30.22 "Hg
* Reported Apr 3 8:00 AM — Apr 18 8:00 AM, Melk, Weather by CustomWeather, © 2015

Note: Actual official high and low records may vary slightly from our data, if they occured in-between our weather recording intervals... More about our weather records

Advertising

Melk weather history for previous 24 hours

 ConditionsComfort  
Time TempWeatherWind HumidityBarometerVisibility
8:00 AM
Sat, Apr 18
43 °FOvercast.1 mph77%30.14 "HgN/A
7:00 AM42 °FQuite cool.1 mph87%30.13 "HgN/A
6:00 AM43 °FQuite cool.1 mph78%30.11 "HgN/A
5:00 AM44 °FQuite cool.1 mph81%30.09 "HgN/A
4:00 AM44 °FQuite cool.1 mph81%30.08 "HgN/A
3:00 AM44 °FQuite cool.1 mph81%30.06 "HgN/A
2:00 AM45 °FQuite cool.1 mph88%30.06 "HgN/A
1:00 AM46 °FFog.No wind88%30.05 "HgN/A
12:00 AM47 °FFog.2 mph80%30.02 "HgN/A
11:00 PM
Fri, Apr 17
48 °FCool.1 mph93%29.98 "HgN/A
10:00 PM49 °FFog.1 mph90%29.95 "HgN/A
9:00 PM51 °FFog.2 mph93%29.92 "HgN/A
8:00 PM51 °FCool.1 mph96%29.89 "HgN/A
7:00 PM52 °FCool.3 mph91%29.86 "HgN/A
6:00 PM56 °FCool.2 mph86%29.83 "HgN/A
5:00 PM55 °FCool.3 mph86%29.84 "HgN/A
4:00 PM55 °FCool.3 mph92%29.85 "HgN/A
3:00 PM55 °FCool.2 mph93%29.85 "HgN/A
2:00 PM59 °FCool.1 mph75%29.84 "HgN/A
1:00 PM58 °FCool.1 mph80%29.86 "HgN/A
12:00 PM58 °FCool.1 mph79%29.88 "HgN/A
11:00 AM62 °FRefreshingly cool.2 mph58%29.88 "HgN/A
10:00 AM60 °FRefreshingly cool.1 mph59%29.88 "HgN/A
9:00 AM55 °FCool.No wind75%29.89 "HgN/A
Weather by CustomWeather, © 2015

See weather overviewHow to use our weather pages